sat.trackr.live / text

‹ back to catalog

ZY-1 02E

NORAD 50465 · 2021-131A

PAYLOAD ACTIVE UNKNOWN

§ Identity

Operator
Country
PRC
Launch date
2021-12-26
Launch site
TAISC
Launch vehicle
Mass (kg)
RCS (m²)

External: N2YO · Heavens-Above · Gunter

§ Orbital elements

Epoch: 2026-05-25T05:08:39.405408Z

Period
100.32 min
Inclination
98.4428°
Eccentricity
0.0001294
Mean motion
14.35389910 rev/d
Perigee alt
772.8 km
Apogee alt
774.7 km
Semi-major
7,151.9 km
B*
-2.0238e-5
RAAN
222.7909°
Arg perigee
127.9857°
Mean anomaly
232.1446°
Rev number
23,112

§ Raw data

ZY-1 02E1 50465U 21131A   26145.21434497 -.00000101  00000+0 -20238-4 0  99922 50465  98.4428 222.7909 0001294 127.9857 232.1446 14.35389910231127

JSON: /api/v1/satellites/50465 · /tle

For live sub-satellite position, see the globe view (requires WebGL).

§ Visibility from observer

Set your observer location to see the next 7 days of passes ≥ 10°. The values pass through the URL so the page stays shareable.

No JS? Fill the form by hand. The geolocation button needs JavaScript.

§ Radio — SatNOGS DB

ModeDescriptionDownlinkUplink
FM S-band telemetry 2.232 GHz

1 transmitter · refreshed weekly from db.satnogs.org